Location: Danville Conservation Area
(38.8674°N, 91.5143°W)
Time: 00:14:00
(UTC-06:00)

Envisat - Pass Details

Date: 01 December 2021
Orbit: 764 x 766 km, 98.2° (Epoch: 23 January)

Event Time Altitude Azimuth Distance (km) Brightness Sun altitude
Rises 17:39:45 0° 214° (SW) 3,218 7.2 -10.7°
Reaches altitude 10° 17:43:18 10° 240° (WSW) 2,298 6.9 -11.3°
Maximum altitude 17:45:45 14° 270° (W) 2,065 6.4 -11.8°
Drops below altitude 10° 17:48:13 10° 299° (WNW) 2,306 6.1 -12.2°
Sets 17:51:48 0° 325° (NW) 3,239 6.5 -12.9°
